Terminal Aerodrome Forecast
Issued by NWS Flagstaff, AZ

Home | Current Version | Previous Version | Text Only | Print | Product List | Glossary On
Versions: 1 2 3 4 5 6 7 8 9 10 11 12 13
000
FTUS45 KFGZ 012300
TAFFLG
TAF
KFLG 012326Z 0200/0224 22011KT P6SM FEW070
     FM020200 VRB03KT P6SM SKC
     FM021700 21010G18KT P6SM SKC=

USA.gov is the U.S. government's official web portal to all federal, state and local government web resources and services.